Miscellaneous Local Product
Issued by NWS Hastings, NE

Home | Current Version | Previous Version | Text Only | Print | Product List | Glossary Off
Versions: 1 2 3 4 5 6 7 8 9 10 11 12 13 14 15 16 17 18 19 20 21 22 23 24 25 26 27 28 29 30 31 32 33 34 35 36 37 38 39 40 41 42 43 44 45 46 47 48 49 50

000
AXUS43 KGID 020502
MISGRI

GID CWA HOURLY WEATHER ROUNDUP
NATIONAL WEATHER SERVICE HASTINGS NE
1200 AM CDT WED SEP 02 2015

NOTE: "FAIR" INDICATES FEW OR NO CLOUDS BELOW 12,000 FEET WITH NO
SIGNIFICANT WEATHER AND/OR OBSTRUCTIONS TO VISIBILITY.

...SOUTH CENTRAL NEBRASKA...

CITY           SKY/WX    TMP DP  RH WIND       PRES   REMARKS
GRAND ISLAND   PTCLDY    77  64  64 S12       29.91S
HASTINGS       CLEAR     76  63  64 MISG      29.91S
KEARNEY        CLEAR     72  63  73 SE10      29.90F
ORD            CLEAR     67  63  87 CALM      29.88S
YORK           CLEAR     73  66  78 S8        29.91S
AURORA         CLEAR     75  65  73 S8        29.91S
LEXINGTON      CLEAR     69  65  86 CALM      29.91S
HOLDREGE       CLEAR     71  61  71 SE13      29.91S
HEBRON         CLEAR     78  62  58 S12G18    29.92S

...NEBRASKA PANHANDLE...

CITY           SKY/WX    TMP DP  RH WIND       PRES   REMARKS
CHADRON        CLEAR     61  45  55 CALM      29.89R
ALLIANCE       PTCLDY    70  48  45 S10       29.94S
SCOTTSBLUFF    PTCLDY    64  50  60 E7        29.94S
SIDNEY         CLEAR     69  46  43 S9        30.00F

...WESTERN AND NORTH CENTRAL NEBRASKA...

CITY           SKY/WX    TMP DP  RH WIND       PRES   REMARKS
VALENTINE      CLEAR     75  61  61 SW9       29.86F
AINSWORTH      CLEAR     73  64  73 S9        29.88F
ONEILL         CLEAR     74  66  76 S8        29.88S
BROKEN BOW     CLEAR     68  63  84 CALM      29.91S
IMPERIAL       CLEAR     73  55  53 S8        29.95S
NORTH PLATTE   CLEAR     65  62  90 E3        29.91F
MCCOOK         CLEAR     75  58  55 CALM      29.91F

...EASTERN NEBRASKA...

CITY           SKY/WX    TMP DP  RH WIND       PRES   REMARKS
NORFOLK        CLEAR     76  66  71 S12       29.88F
SO SIOUX CITY  CLEAR     75  67  76 S9        29.88S
TEKAMAH        CLEAR     73  69  87 SE7       29.90S
COLUMBUS       CLEAR     75  63  64 S7        29.90S
ALBION         CLEAR     72  65  79 SE5       29.89F
OMAHA EPPLEY   MOCLDY    80  67  64 S21       29.92S
OFFUTT AFB     PTCLDY    77  68  73 SE14      29.92F
MILLARD        PTCLDY    78  68  72 SE8       29.92S
LINCOLN        CLEAR     78  65  63 S13G22    29.91S
NEBRASKA CITY  CLOUDY    76  62  60 S13       29.95F
BEATRICE       PTCLDY    78  67  68 S13G18    29.93S
FALLS CITY     LGT RAIN  75  68  78 S14       29.96F

...NORTHERN KANSAS...

CITY           SKY/WX    TMP DP  RH WIND       PRES   REMARKS
GOODLAND       PTCLDY    68  59  73 S7        29.99S
HILL CITY      PTCLDY    81  58  45 S9        29.93R
NORTON         CLEAR     73  54  49 S8        29.91S
PHILLIPSBURG   CLEAR     81  59  47 S5        29.91R
SMITH CENTER   PTCLDY    79  61  53 SE14      29.92S
HAYS           PTCLDY    82  57  42 S15G21    29.94S
RUSSELL        PTCLDY    80  60  50 S12       29.93R
CONCORDIA      PTCLDY    78  66  66 S18       29.93S
SALINA         PTCLDY    82  67  60 S18       29.95S
TOPEKA         PTCLDY    78  67  68 S7        29.99S



USA.gov is the U.S. government's official web portal to all federal, state and local government web resources and services.